Ana Sayfa
METAR-TAF:

METAR-TAF

Havaalanları :

Ranger Station

Stanley, Idaho, Amerika Birleşik Devletleri

Enlem: 44-12-31N, Boylam: 114-56-04W, yükseklik: 1980 m

Güncel hava durumu gözlemi

Rapor saat 13:51 UTC de 34 dakika önce yapıldı.
Sakin rüzgar
Sıcaklık -16°C
Nem 78%
Basınç 1020 hPa

METAR: KSNT 091351Z AUTO 00000KT M16/M19 A3012 RMK AO1 SLP229 T11611194

Saat: 07:25 (14:25 UTC)


TAF: eksik

4.000'den fazla havaalanı için hava durumu gözlemleri ve tahminleri (METAR ve TAF raporları).

Kullanılabilir istasyonlar harita üzerinde sarı ve kırmızı noktalarla gösterilir.

İstasyonun adını görmek için fareyi noktanın üzerinde gezdirin.

Sonrasında hava gözlem ve tahminlerini görmek için tıklayın.

Haritayı değiştirmek için: yaklaştırmak için siyah artı işaretli yeşil düğmeye ve uzaklaştırmak için de eksi işaretli düğmeye hızla tıklayın; bitişik haritalar için yeşil okları kullanın.


METAR-TAF: